Regional Weather Roundup
Issued by NWS Huntsville, AL

Current Version | Previous Version | Text Only | Print | Product List | Glossary On
Versions: 1 2 3 4 5 6 7 8 9 10 11 12 13 14 15 16 17 18 19 20 21 22 23 24 25 26 27 28 29 30 31 32 33 34 35 36 37 38 39 40 41 42 43 44 45 46 47 48 49 50
040
ASUS44 KHUN 280810
RWRHUN

WEATHER ROUNDUP FOR THE TENNESSEE VALLEY
NATIONAL WEATHER SERVICE HUNTSVILLE AL
300 AM CDT SAT MAY 28 2016

ALZ001>004-280900-
NORTHWEST ALABAMA

CITY           SKY/WX    TMP DP  RH WIND       PRES   REMARKS
COURTLAND HCN    N/A     68 N/A N/A CALM        N/A
RUSSELLVILLE     N/A     64 N/A N/A MISG        N/A
SHOALS AIRPORT PTCLDY    70  64  81 SE6       29.99S
SHOALS TVA RES   N/A     70 N/A N/A MISG        N/A
$$

ALZ005>007-016-280900-
NORTH CENTRAL ALABAMA

CITY           SKY/WX    TMP DP  RH WIND       PRES   REMARKS
CULLMAN AG STN   N/A     72 N/A N/A SE3         N/A
DECATUR AP     CLOUDY    73  64  73 SE7       30.00F
HUNTSVILLE AP  CLOUDY    73  62  68 SE8       30.01S
HUN NWS/UAH      N/A     75  60  58 S7          N/A
MERIDIANVILLE  CLOUDY    73  55  53 CALM      30.02S
REDSTONE ARSN  CLOUDY    73  63  69 S6        30.01R
VINEMONT AP    CLOUDY    72  62  70 SE5       30.05S
$$

ALZ008>010-280900-
NORTHEAST ALABAMA

CITY           SKY/WX    TMP DP  RH WIND       PRES   REMARKS
ALBERTVILLE    CLOUDY    72  66  83 SE3       30.03S
FORT PAYNE     CLOUDY    73  57  56 SE7       30.05S
SCOTTSBORO AP  CLOUDY    77  63  61 S6        30.04R
SCOTTSBORO HCN   N/A     77 N/A N/A MISG        N/A
VALLEY HEAD      N/A     73 N/A N/A MISG        N/A
$$

TNZ076-096-097-280900-
SOUTHEASTERN MIDDLE TENNESSEE

CITY           SKY/WX    TMP DP  RH WIND       PRES   REMARKS
TULLAHOMA      CLEAR     68  68 100 S3        30.05R
WINCHESTER     CLEAR     72  63  73 S8        30.04S
$$

...SURROUNDING SITES...

CITY           SKY/WX    TMP DP  RH WIND       PRES   REMARKS
ATLANTA        PTCLDY    69  59  70 S7        30.10R
ANNISTON       CLOUDY    71  61  70 E6        30.05R
BIRMINGHAM     CLEAR     76  63  64 CALM      30.03S
CHATTANOOGA    CLEAR     69  61  75 CALM      30.06S
DALTON         PTCLDY    64  63  94 S3        30.07S
GADSDEN        CLOUDY    75  62  64 SE8       30.03F
GOLDEN TRNGL   PTCLDY    70  63  78 S8        29.95F
HALEYVILLE     FAIR      70  66  87 SE5       30.02S
JACKSON TN     CLOUDY    72  63  73 S5        29.92S
MEMPHIS        CLOUDY    70  66  87 CALM      29.91R
NASHVILLE      CLOUDY    73  64  73 S7        30.00S
OXFORD MS      FAIR      72  63  73 S10G16    29.91S
ROME           CLEAR     64  60  87 CALM      30.06R
SAVANNAH       PTCLDY    72  64  78 SE6       29.94S
TUPELO         CLEAR     70  63  78 SE6       29.94S
TUSCALOOSA     CLOUDY    71  69  93 S3        30.00R
$$

...GULF COAST WEATHER...

CITY           SKY/WX    TMP DP  RH WIND       PRES   REMARKS
GULFPORT       CLOUDY    78  68  71 S6        29.96S
PASCAGOULA     CLOUDY    71  69  93 CALM      29.98F
MOBILE         CLOUDY    71  69  93 E5        30.00S
GULF SHORES    CLOUDY    67  67  99 CALM      29.99S
DESTIN         CLOUDY    77  70  79 CALM      30.00R
PANAMA CITY    CLEAR     71  66  82 NE6       30.00S
APPALACHICOLA  MOCLDY    77  71  82 E9        29.99S
$$





USA.gov is the U.S. government's official web portal to all federal, state and local government web resources and services.